Location: Unspecified
(0.0000°N, 0.0000°E)
Time: 20:53:27
(UTC+00:00)

STARLINK-1564 - Visible Passes

Search period start: 12 January 2025 00:00
Search period end: 22 January 2025 00:00
Orbit: 546 x 548 km, 53.1° (Epoch: 12 January)

Date Brightness Start Highest point End Pass type
(mag) Time Alt. Az. Time Alt. Az. Time Alt. Az.
15 Jan 7.0 04:10:39 10° SE 04:11:50 11° SE 04:13:01 10° ESE visible
16 Jan 6.5 04:02:52 10° SSE 04:05:36 17° SE 04:08:20 10° E visible
16 Jan 4.7 05:41:34 10° WSW 05:44:55 24° NW 05:48:14 10° N visible
17 Jan 5.7 03:58:28 24° SSE 03:59:23 26° SE 04:02:51 10° ENE visible
17 Jan 5.2 05:36:12 10° W 05:38:42 16° NW 05:41:11 10° NNW visible
18 Jan 6.5 03:57:03 10° NE 03:57:03 10° NE 03:57:03 10° NE visible
